[[{"header":{"parameterUnit":"m.s-1","parameterCategory":1,"la1":30.2991,"la2":30.254,"lo1":-89.0895,"lo2":-89.0444,"dy":0.0017,"dx":0.0017,"nx":28,"ny":28,"refTime":"2025-03-08T09:00:00:Z","depth":0,"parameterNumber":2,"parameterNumberName":"U-component_of_WINDS"},"data":[0,0,0,0,0,0,0,0,0,0,0,0,0,0,0,0,0,0,0,0,0,0,0,0,0,0,0,0,0,0,0,0,0,0,0,0,0,0,0,0,0,0,0,0,0,0,0,0,0,0,0,0,0,0,0,0,0,0,2.1956,2.1956,0,2.1932,2.1932,2.1931,2.1843,2.1841,2.1839,2.1837,2.1817,2.1818,2.1819,0,0,0,0,0,0,0,0,0,0,0,0,0,2.1932,2.1933,2.1956,2.1956,2.1956,2.1932,2.1932,2.1931,2.1843,2.1841,2.1839,2.1836,2.1816,2.1818,2.1819,0,0,0,0,0,0,0,0,0,0,0,0,0,2.1929,2.1933,2.1956,2.1909,2.1904,2.1932,2.1932,2.1931,2.1844,2.1841,2.1838,2.1835,2.1816,2.1818,2.182,2.1892,0,0,2.1826,2.1826,0,0,0,0,0,0,0,0,2.1929,2.193,2.1916,2.1912,2.1907,2.1887,2.1915,2.1918,2.1845,2.1867,2.1837,2.1834,2.1843,2.1842,2.1845,2.1891,2.1891,2.1826,2.1827,2.1828,2.1828,0,0,0,0,0,0,0,2.1929,2.193,2.1947,2.1916,2.1911,2.1891,2.1887,2.1916,2.1872,2.1865,2.1858,2.1857,2.184,2.1843,2.1844,2.189,2.1826,2.1828,2.1829,2.183,2.1997,2.2,0,0,0,0,0,0,2.1936,2.1931,2.1948,2.1946,2.1911,2.1894,2.1889,2.1897,2.1872,2.1865,2.1859,2.1853,2.1841,2.1841,2.1842,2.1926,2.1828,2.183,2.1831,2.1994,2.1998,2.2001,0,0,0,0,0,0,2.1936,2.1938,2.1949,2.1937,2.1937,2.1897,2.1907,2.1898,2.1901,2.1867,2.186,2.187,2.1839,2.184,2.1881,2.1924,2.1831,2.1832,2.199,2.1995,2.1999,2.2094,0,0,0,0,0,0,2.1935,2.1938,2.1964,2.1938,2.1938,2.1986,2.1909,2.19,2.1904,2.1895,2.1875,2.1869,2.1836,2.1878,2.1883,2.1925,2.1834,2.1986,2.1992,2.1998,2.2087,2.2102,2.2114,0,0,0,0,0,2.1935,2.1993,2.1966,2.1969,2.1969,2.1988,2.1988,2.1948,2.1908,2.1934,2.1913,2.187,2.1919,2.1883,2.1887,2.1931,2.1983,2.199,2.1997,2.2081,2.2099,2.2114,0,0,0,0,0,0,2.2026,2.1988,2.1958,2.2009,2.2003,2.1973,2.2005,2.1968,2.1974,2.1965,2.1917,2.1913,2.1961,2.1951,2.1911,2.2001,2.1944,2.1952,2.2006,2.2023,2.2036,2.2037,2.1836,0,0,0,0,0,2.2052,2.207,2.2036,2.2085,2.2083,2.2045,2.2052,2.2022,2.2013,2.201,2.1992,2.1987,2.2001,2.2012,2.2023,2.2086,2.2081,2.2119,2.2132,2.2144,2.2151,2.2184,2.2201,2.2025,2.2025,2.2025,0,0,2.2106,2.2088,2.2102,2.2103,2.2094,2.2115,2.2043,2.2068,2.2083,2.2015,2.2051,2.2039,2.203,2.2082,2.2104,2.2075,2.2199,2.2153,2.2162,2.2164,2.2194,2.221,2.2225,2.203,2.2029,2.2029,0,0,2.2215,2.2203,2.2241,2.2234,2.2222,2.2196,2.2206,2.2183,2.2171,2.2207,2.2157,2.2176,2.2201,2.2197,2.2198,2.2308,2.2268,2.2313,2.2384,2.2417,2.2431,2.2443,2.2482,2.2497,2.2321,2.2322,2.2322,0,2.2284,2.2311,2.2267,2.2295,2.2297,2.2236,2.2276,2.2271,2.2264,2.2268,2.2235,2.2266,2.2256,2.2307,2.2333,2.2337,2.2347,2.2314,2.2432,2.2444,2.2455,2.2491,2.2506,2.2327,2.2326,2.2326,2.2325,0,2.2397,2.2417,2.245,2.2443,2.245,2.2484,2.2446,2.2459,2.2429,2.2408,2.2447,2.2433,2.244,2.245,2.2422,2.2498,2.248,2.2441,2.2382,2.2478,2.2511,2.2525,2.2335,2.2333,2.2331,2.233,0,0,2.256,2.2529,2.2542,2.2538,2.2521,2.2537,2.2569,2.2575,2.2587,2.2585,2.2612,2.2636,2.2599,2.2601,2.2572,2.2601,2.2689,2.2558,2.2557,2.2582,2.2773,2.2801,2.2818,2.2664,2.2666,2.2668,2.2773,0,2.2663,2.2714,2.2676,2.2735,2.2753,2.2697,2.2725,2.2719,2.2701,2.2716,2.2696,2.2714,2.2665,2.2666,2.2692,2.2673,2.2727,2.2665,2.2689,2.269,2.2691,2.2836,2.2866,2.2965,2.2786,2.2788,2.279,0,2.2788,2.2791,2.2851,2.2831,2.2837,2.2863,2.2866,2.2881,2.2874,2.2859,2.2862,2.2825,2.2858,2.2801,2.2846,2.2805,2.2813,2.2805,2.2808,2.2808,2.2745,2.2838,2.2996,2.3011,2.281,2.2809,2.2807,0,2.2901,2.292,2.2958,2.2957,2.2934,2.2954,2.2946,2.2935,2.2942,2.2946,2.295,2.2959,2.2963,2.2972,2.2939,2.2901,2.2988,2.2929,2.2977,2.2978,2.2997,2.2996,2.3157,2.3004,2.3004,2.3004,2.3004,0,2.3018,2.3057,2.3008,2.3032,2.3074,2.3032,2.3076,2.3062,2.3054,2.3075,2.3028,2.3049,2.3006,2.3023,2.2999,2.3039,2.3042,2.3032,2.3025,2.3035,2.3036,2.3039,2.303,2.3008,2.3007,2.3006,2.3006,0,2.315,2.3118,2.3156,2.3132,2.3127,2.316,2.314,2.3162,2.3142,2.3169,2.3174,2.3142,2.316,2.313,2.3145,2.3128,2.3185,2.3168,2.3187,2.3181,2.3231,2.3226,2.3398,2.3418,2.3254,2.3256,2.3257,0,2.3226,2.3255,2.3234,2.3244,2.3238,2.3255,2.3262,2.3223,2.3232,2.3226,2.3249,2.3264,2.3272,2.3305,2.3284,2.3296,2.3278,2.3338,2.328,2.329,2.3278,2.3276,2.3279,2.3349,2.3351,2.3353,2.3354,0,2.3365,2.3348,2.3358,2.3364,2.3373,2.3376,2.3376,2.3387,2.3346,2.3359,2.3377,2.3384,2.3399,2.3414,2.3421,2.3414,2.3378,2.3373,2.3385,2.3395,2.3404,2.3399,2.3218,2.3369,2.3367,2.3366,2.3365,2.3365,2.347,2.3493,2.3482,2.3496,2.3491,2.3493,2.3512,2.3494,2.3508,2.3516,2.3493,2.3516,2.351,2.3515,2.3513,2.3532,2.3506,2.3523,2.3527,2.3532,2.3539,2.3403,2.3533,2.3533,2.3533,2.3532,2.3532,0,2.3605,2.3596,2.3609,2.361,2.3621,2.3586,2.3584,2.3596,2.3617,2.3614,2.3624,2.3645,2.366,2.3641,2.3653,2.3672,2.3656,2.3677,2.3674,2.3673,2.3562,2.355,2.369,2.3689,2.3689,2.3689,2.3689,2.3689,2.3677,2.3714,2.3696,2.3732,2.3722,2.3744,2.3746,2.3748,2.3745,2.377,2.3782,2.3769,2.3761,2.3772,2.3785,2.3779,2.3785,2.3812,2.38,2.3696,2.3681,2.3666,2.3655,2.3814,2.3814,2.391,2.3911,2.3911]},{"header":{"parameterUnit":"m.s-1","parameterCategory":1,"la1":30.2991,"la2":30.254,"lo1":-89.0895,"lo2":-89.0444,"dy":0.0017,"dx":0.0017,"nx":28,"ny":28,"refTime":"2025-03-08T09:00:00:Z","depth":0,"parameterNumber":3,"parameterNumberName":"V-component_of_WINDS"},"data":[0,0,0,0,0,0,0,0,0,0,0,0,0,0,0,0,0,0,0,0,0,0,0,0,0,0,0,0,0,0,0,0,0,0,0,0,0,0,0,0,0,0,0,0,0,0,0,0,0,0,0,0,0,0,0,0,0,0,0.9657,0.9658,0,0.9727,0.9728,0.9729,0.9783,0.9783,0.9784,0.9784,0.9855,0.9856,0.9858,0,0,0,0,0,0,0,0,0,0,0,0,0,0.9569,0.957,0.9657,0.9658,0.9659,0.9727,0.9728,0.9729,0.9783,0.9783,0.9784,0.9785,0.9855,0.9856,0.9858,0,0,0,0,0,0,0,0,0,0,0,0,0,0.962,0.957,0.9657,0.9694,0.9698,0.9727,0.9728,0.9729,0.9783,0.9783,0.9784,0.9785,0.9854,0.9856,0.9858,0.9856,0,0,0.9865,0.9865,0,0,0,0,0,0,0,0,0.9617,0.9623,0.9687,0.9691,0.9696,0.9747,0.9723,0.9771,0.9782,0.975,0.9784,0.9785,0.9818,0.9823,0.9835,0.9859,0.9862,0.9865,0.9866,0.9867,0.9867,0,0,0,0,0,0,0,0.9613,0.962,0.9685,0.9688,0.9693,0.9707,0.9715,0.9732,0.9779,0.9753,0.9757,0.9765,0.9821,0.9833,0.9837,0.9863,0.9865,0.9867,0.9868,0.9869,0.9888,0.9888,0,0,0,0,0,0,0.9604,0.9617,0.9682,0.9687,0.9657,0.9708,0.9717,0.973,0.9779,0.9787,0.9764,0.9767,0.9829,0.9834,0.984,0.984,0.9867,0.9869,0.987,0.9889,0.9888,0.9887,0,0,0,0,0,0,0.9602,0.9609,0.968,0.9653,0.9663,0.9708,0.9723,0.9731,0.9743,0.9787,0.9796,0.9768,0.983,0.9837,0.9851,0.9843,0.987,0.9872,0.989,0.9889,0.9888,0.984,0,0,0,0,0,0,0.9599,0.9608,0.9608,0.9652,0.9664,0.969,0.9722,0.9732,0.9746,0.9751,0.9793,0.9801,0.9831,0.9848,0.9853,0.9846,0.9873,0.9891,0.989,0.9888,0.9842,0.9837,0.9833,0,0,0,0,0,0.9596,0.9591,0.9607,0.9615,0.9665,0.9689,0.9696,0.9731,0.9745,0.9745,0.9774,0.9799,0.9843,0.9849,0.9856,0.9849,0.9892,0.989,0.9888,0.9844,0.9838,0.9833,0,0,0,0,0,0,0.9544,0.9598,0.9616,0.9626,0.9653,0.9699,0.9699,0.9723,0.9746,0.9749,0.9791,0.9801,0.981,0.9832,0.9837,0.9849,0.9871,0.987,0.9835,0.9829,0.9825,0.9819,0.9875,0,0,0,0,0,0.9534,0.955,0.9596,0.96,0.9613,0.9653,0.9666,0.969,0.972,0.9731,0.9761,0.9788,0.9808,0.982,0.9841,0.9846,0.9856,0.9845,0.984,0.9836,0.9835,0.9839,0.9834,0.9882,0.9882,0.9882,0,0,0.9512,0.9544,0.9551,0.959,0.9614,0.9629,0.9663,0.9677,0.9689,0.9733,0.9749,0.9772,0.9805,0.9814,0.982,0.9832,0.9824,0.9834,0.983,0.9831,0.9837,0.9832,0.9828,0.9881,0.9881,0.9881,0,0,0.9481,0.9507,0.9513,0.9537,0.9572,0.9599,0.9601,0.9643,0.966,0.9677,0.971,0.9724,0.9758,0.978,0.9795,0.9773,0.9797,0.9779,0.9754,0.9757,0.9754,0.975,0.9742,0.9739,0.9778,0.9778,0.9778,0,0.9451,0.9475,0.9513,0.9526,0.9542,0.9584,0.959,0.9611,0.9651,0.9661,0.9674,0.9717,0.9742,0.9757,0.9752,0.9763,0.9766,0.9774,0.9751,0.9748,0.9746,0.9738,0.9735,0.9775,0.9776,0.9776,0.9776,0,0.9435,0.9452,0.9452,0.9491,0.9507,0.9516,0.9556,0.9568,0.9591,0.9617,0.9633,0.9665,0.9693,0.9699,0.9721,0.9717,0.9724,0.9743,0.9766,0.9738,0.9732,0.9729,0.9772,0.9773,0.9773,0.9774,0,0,0.9373,0.9432,0.9432,0.9449,0.9492,0.9505,0.9517,0.9544,0.9554,0.958,0.959,0.9618,0.9637,0.9654,0.968,0.9683,0.9663,0.9703,0.9704,0.9694,0.966,0.9645,0.9641,0.968,0.968,0.9679,0.9657,0,0.9348,0.9371,0.9406,0.9417,0.9432,0.9472,0.9482,0.9509,0.9534,0.955,0.9578,0.9596,0.962,0.9631,0.9636,0.9665,0.9657,0.9667,0.9689,0.969,0.9679,0.9638,0.9621,0.9599,0.9655,0.9655,0.9655,0,0.9322,0.9346,0.9359,0.94,0.9408,0.9416,0.9444,0.946,0.9492,0.9509,0.9529,0.9558,0.9572,0.9592,0.9612,0.9618,0.9629,0.9645,0.9645,0.9648,0.967,0.9638,0.9592,0.9588,0.9651,0.9651,0.9652,0,0.9274,0.931,0.9322,0.9336,0.9385,0.939,0.941,0.9443,0.9457,0.9482,0.9492,0.9518,0.9531,0.9551,0.9585,0.9598,0.9601,0.9625,0.9616,0.9615,0.9614,0.9613,0.9568,0.9623,0.9623,0.9623,0.9623,0,0.9242,0.9248,0.9301,0.9309,0.9317,0.9357,0.9364,0.9388,0.9416,0.9429,0.9466,0.9477,0.9522,0.9538,0.9566,0.9578,0.9584,0.9598,0.9605,0.9595,0.9592,0.9602,0.9604,0.9622,0.9622,0.9622,0.9622,0,0.9189,0.9225,0.9241,0.9286,0.9298,0.9301,0.934,0.9349,0.9376,0.9392,0.9398,0.944,0.9461,0.9498,0.953,0.9548,0.9555,0.9567,0.9544,0.9548,0.9537,0.9537,0.9495,0.9492,0.9549,0.9548,0.9548,0,0.9165,0.9171,0.9217,0.9228,0.9247,0.9265,0.928,0.932,0.9334,0.9371,0.9375,0.9399,0.9421,0.9453,0.9486,0.9511,0.9524,0.9508,0.9528,0.9517,0.9523,0.9522,0.9522,0.9503,0.9502,0.9501,0.9501,0,0.912,0.9138,0.9158,0.9185,0.9202,0.9225,0.925,0.9257,0.9303,0.9317,0.9339,0.9356,0.9388,0.9412,0.9441,0.9463,0.9489,0.9494,0.9493,0.9482,0.9468,0.9475,0.953,0.9495,0.9495,0.9496,0.9496,0.9496,0.9081,0.9088,0.9121,0.9142,0.9165,0.9188,0.9198,0.9227,0.9246,0.9276,0.9299,0.9319,0.9351,0.9394,0.9413,0.943,0.9442,0.9441,0.9441,0.9439,0.9435,0.9466,0.9436,0.9436,0.9436,0.9436,0.9437,0,0.9036,0.906,0.9079,0.9113,0.913,0.9154,0.9183,0.9196,0.9213,0.9241,0.9261,0.9287,0.931,0.9346,0.9372,0.9379,0.9391,0.9384,0.9383,0.9388,0.9423,0.9421,0.9373,0.9373,0.9373,0.9373,0.9373,0.9373,0.9015,0.9028,0.905,0.9074,0.9098,0.9118,0.9133,0.9154,0.9176,0.9203,0.9222,0.9246,0.9277,0.9306,0.9328,0.9338,0.9345,0.9334,0.9348,0.938,0.9385,0.9391,0.9389,0.9336,0.9335,0.9311,0.9311,0.9311]}]]